sat.trackr.live / text

‹ back to catalog

UNKNOWN

NORAD 82617

UNKNOWN UNKNOWN UNKNOWN

§ Identity

Operator
Country
Launch date
Launch site
Launch vehicle
Mass (kg)
RCS (m²)

External: N2YO · Heavens-Above

§ Orbital elements

Epoch: 2026-09-18T03:57:40.601664Z

Period
99.33 min
Inclination
74.0253°
Eccentricity
0.0038902
Mean motion
14.49737230 rev/d
Perigee alt
698.9 km
Apogee alt
754.1 km
Semi-major
7,104.6 km
B*
8.4833e-5
RAAN
78.9892°
Arg perigee
312.6176°
Mean anomaly
47.1705°
Rev number
67,731

§ Raw data

UNKNOWN1 82617U          26261.16505326  .00000301  00000+0  84833-4 0  99922 82617  74.0253  78.9892 0038902 312.6176  47.1705 14.49737230677316

JSON: /api/v1/satellites/82617 · /tle

For live sub-satellite position, see the globe view (requires WebGL).

§ Visibility from observer

Set your observer location to see the next 7 days of passes ≥ 10°. The values pass through the URL so the page stays shareable.

No JS? Fill the form by hand. The geolocation button needs JavaScript.